Regional Weather Roundup
Issued by NWS

Home | Current Version | Previous Version | Text Only | Print | Product List | Glossary Off
Versions: 1 2 3 4 5 6 7 8 9 10 11 12 13 14 15 16 17 18 19 20 21 22 23 24 25 26 27 28 29 30 31 32 33 34 35 36 37 38 39 40 41 42 43 44 45 46 47 48 49 50

000
ASUS43 KTOP 230459
RWRKS

WEATHER ROUNDUP FOR KANSAS
NATIONAL WEATHER SERVICE GOODLAND KS
1100 PM CST SUN JAN 22 2017

NOTE:  "FAIR" INDICATES FEW OR NO CLOUDS BELOW 12,000 FEET WITH NO
SIGNIFICANT WEATHER AND/OR OBSTRUCTIONS TO VISIBILITY.

KSZ001>006-013>018-027>032-041>047-230600-
NORTHWEST KANSAS

CITY           SKY/WX    TMP DP  RH WIND       PRES   REMARKS
GOODLAND       CLOUDY    25  21  85 SW7       29.91S
HAYS           CLEAR     31  25  78 NW6       29.93S
HILL CITY      CLEAR     31  27  85 W9        29.93S
RUSSELL        CLEAR     30  24  78 SW7       29.92R
$$

KSZ061>065-074>080-084>089-230600-
SOUTHWEST KANSAS

CITY           SKY/WX    TMP DP  RH WIND       PRES   REMARKS
DODGE CITY     CLEAR     29  24  82 SW6       29.95S
ELKHART          N/A     37  20  50 SE3         N/A
GARDEN CITY    CLOUDY    29  24  82 W7        29.95R
GREAT BEND     CLEAR     29  25  85 S3        29.94S
LIBERAL          N/A     30  21  69 W5        29.97F
$$

KSZ066>073-081>083-090>101-230600-
SOUTHEAST KANSAS

CITY           SKY/WX    TMP DP  RH WIND       PRES   REMARKS
CHANUTE        CLEAR     34  30  85 N7        29.91R
COFFEYVILLE    CLEAR     35  31  85 NW9       29.94R
HUTCHINSON     CLEAR     31  26  82 NW5       29.94R
MEDICINE LODGE   N/A     30  25  81 N5        29.95S
NEWTON         CLEAR     30  29  96 W7        29.94R
PARSONS        CLEAR     35  31  85 N9        29.93R
WICHITA INTL   CLEAR     33  30  88 NW5       29.95R
WICHITA JABRA  CLEAR     33  30  88 W7        29.94R
WINFIELD       CLEAR     34  31  88 W5        29.95R
$$

KSZ007>012-019>026-033>040-048>060-102>105-230600-
NORTHEAST KANSAS

CITY           SKY/WX    TMP DP  RH WIND       PRES   REMARKS
CONCORDIA      CLEAR     32  29  88 SW7       29.91R
EMPORIA        CLEAR     30  29  96 W7        29.92R
LAWRENCE       CLEAR     34  32  92 W6        29.92R
MANHATTAN      CLEAR     26  25  96 CALM      29.93R
OLATHE IND     CLOUDY    38  35  89 N10       29.90R WCI  31
OLATHE EXE     CLOUDY    37  34  89 N10       29.89R WCI  30
SALINA         CLEAR     28  27  96 W3        29.93S
TOPEKA BILLARD CLEAR     34  30  85 W5        29.91R
TOPEKA FORBES  CLEAR     33  30  88 NW9       29.91R
$$




USA.gov is the U.S. government's official web portal to all federal, state and local government web resources and services.